When you browse on this site, cookies collect data to enhance your experience and personalize the content and advertising you see.
Visit our Privacy Policy to learn more. By continuing to use the site, you agree to this use of cookies and data.
  • En España
  • Lista de países
  • Para 7 días
  • Temperatura del agua
  • El tiempo en el mapa
  • Informadores
  • user-avatar
    Iniciar sesión

    Tiempo cada hora Kinshasa

    Hoy, 20 Octubre, Domingo

    Tiempo Temperatura Precipitaciones Viento Presión Humedad
    00:00 +20°C° 0.6 mm 0 mps 707 mmHg 93%
    01:00 +20°C° 0.6 mm 0 mps 707 mmHg 94%
    02:00 +22°C° 0 mm 1 mps 707 mmHg 95%
    03:00 +21°C° 0 mm 1 mps 707 mmHg 96%
    04:00 +21°C° 0 mm 1 mps 706 mmHg 97%
    05:00 +22°C° 0 mm 1 mps 707 mmHg 96%
    06:00 +22°C° 0 mm 1 mps 708 mmHg 96%
    07:00 +23°C° 0 mm 1 mps 708 mmHg 96%
    08:00 +23°C° 0 mm 1 mps 708 mmHg 94%
    09:00 +24°C° 0 mm 1 mps 709 mmHg 93%
    10:00 +24°C° 0 mm 1 mps 709 mmHg 91%
    11:00 +26°C° 0.4 mm 1 mps 708 mmHg 85%
    12:00 +28°C° 0.4 mm 1 mps 707 mmHg 78%
    13:00 +30°C° 0.4 mm 1 mps 706 mmHg 71%
    14:00 +29°C° 0.4 mm 1 mps 706 mmHg 74%
    15:00 +29°C° 0.4 mm 1 mps 705 mmHg 77%
    16:00 +28°C° 0.4 mm 1 mps 705 mmHg 80%
    17:00 +27°C° 1.1 mm 1 mps 705 mmHg 85%
    18:00 +25°C° 1.1 mm 1 mps 705 mmHg 90%
    19:00 +24°C° 1.1 mm 1 mps 706 mmHg 94%
    20:00 +24°C° 0.9 mm 1 mps 706 mmHg 95%
    21:00 +23°C° 0.9 mm 1 mps 707 mmHg 96%
    22:00 +23°C° 0.9 mm 1 mps 707 mmHg 96%
    23:00 +23°C° 1.3 mm 1 mps 707 mmHg 97%

    Mañana, 21 Octubre, Lunes

    Tiempo Temperatura Precipitaciones Viento Presión Humedad
    00:00 +21°C° 1.3 mm 0 mps 707 mmHg 97%
    01:00 +21°C° 1.3 mm 0 mps 707 mmHg 98%
    02:00 +20°C° 0.7 mm 0 mps 706 mmHg 98%
    03:00 +22°C° 0.7 mm 1 mps 706 mmHg 98%
    04:00 +22°C° 0.7 mm 1 mps 706 mmHg 98%
    05:00 +22°C° 0 mm 1 mps 707 mmHg 98%
    06:00 +23°C° 0 mm 1 mps 707 mmHg 98%
    07:00 +23°C° 0 mm 1 mps 708 mmHg 98%
    08:00 +24°C° 0.4 mm 1 mps 708 mmHg 96%
    09:00 +25°C° 0.4 mm 1 mps 708 mmHg 93%
    10:00 +26°C° 0.4 mm 1 mps 708 mmHg 91%
    11:00 +27°C° 1.1 mm 1 mps 708 mmHg 87%
    12:00 +28°C° 1.1 mm 1 mps 707 mmHg 84%
    13:00 +28°C° 1.1 mm 1 mps 706 mmHg 80%
    14:00 +28°C° 0.8 mm 1 mps 705 mmHg 82%
    15:00 +28°C° 0.8 mm 1 mps 705 mmHg 83%
    16:00 +25°C° 0.8 mm 0 mps 705 mmHg 85%
    17:00 +24°C° 1.1 mm 0 mps 705 mmHg 88%
    18:00 +23°C° 1.1 mm 0 mps 705 mmHg 91%
    19:00 +22°C° 1.1 mm 0 mps 706 mmHg 94%
    20:00 +24°C° 0.1 mm 1 mps 706 mmHg 94%
    21:00 +23°C° 0.1 mm 1 mps 706 mmHg 95%
    22:00 +23°C° 0.1 mm 1 mps 707 mmHg 96%
    23:00 +21°C° 1.6 mm 0 mps 706 mmHg 96%

    Pasado mañana, 22 Octubre, Martes

    Tiempo Temperatura Precipitaciones Viento Presión Humedad
    00:00 +21°C° 1.6 mm 0 mps 706 mmHg 97%
    01:00 +20°C° 1.6 mm 0 mps 706 mmHg 98%
    02:00 +20°C° 1 mm 0 mps 706 mmHg 98%
    03:00 +22°C° 1 mm 1 mps 706 mmHg 98%
    04:00 +22°C° 1 mm 1 mps 705 mmHg 99%
    05:00 +22°C° 1 mm 1 mps 706 mmHg 98%
    06:00 +22°C° 1 mm 1 mps 707 mmHg 98%
    07:00 +23°C° 1 mm 1 mps 708 mmHg 98%
    08:00 +23°C° 1.9 mm 1 mps 708 mmHg 98%
    09:00 +21°C° 1.9 mm 0 mps 708 mmHg 98%
    10:00 +21°C° 1.9 mm 0 mps 708 mmHg 98%
    11:00 +21°C° 5 mm 0 mps 707 mmHg 98%
    12:00 +23°C° 5 mm 1 mps 707 mmHg 98%
    13:00 +23°C° 5 mm 1 mps 706 mmHg 98%
    14:00 +21°C° 0.9 mm 0 mps 706 mmHg 98%
    15:00 +21°C° 0.9 mm 0 mps 706 mmHg 98%
    16:00 +21°C° 0.9 mm 0 mps 705 mmHg 98%
    17:00 +20°C° 0 mm 0 mps 705 mmHg 98%
    18:00 +20°C° 0 mm 0 mps 705 mmHg 98%
    19:00 +20°C° 0 mm 0 mps 705 mmHg 98%
    20:00 +19°C° 0 mm 0 mps 705 mmHg 98%
    21:00 +19°C° 0 mm 0 mps 705 mmHg 98%
    22:00 +19°C° 0 mm 0 mps 705 mmHg 98%
    23:00 +19°C° 0 mm 0 mps 705 mmHg 98%

    23 Octubre, Miércoles

    Tiempo Temperatura Precipitaciones Viento Presión Humedad
    00:00 +21°C° 0 mm 1 mps 705 mmHg 98%
    01:00 +21°C° 0 mm 1 mps 705 mmHg 98%
    02:00 +21°C° 0 mm 1 mps 705 mmHg 98%
    03:00 +21°C° 0 mm 1 mps 705 mmHg 98%
    04:00 +21°C° 0 mm 1 mps 705 mmHg 98%
    05:00 +21°C° 0 mm 1 mps 706 mmHg 98%
    06:00 +22°C° 0 mm 1 mps 706 mmHg 97%
    07:00 +22°C° 0 mm 1 mps 707 mmHg 97%
    08:00 +24°C° 0 mm 1 mps 707 mmHg 90%
    09:00 +25°C° 0 mm 1 mps 708 mmHg 83%
    10:00 +27°C° 0 mm 1 mps 708 mmHg 77%
    11:00 +27°C° 0.4 mm 1 mps 707 mmHg 77%
    12:00 +28°C° 0.4 mm 1 mps 706 mmHg 78%
    13:00 +28°C° 0.4 mm 1 mps 705 mmHg 79%
    14:00 +28°C° 0.2 mm 1 mps 705 mmHg 78%
    15:00 +28°C° 0.2 mm 1 mps 704 mmHg 77%
    16:00 +26°C° 0.2 mm 0 mps 704 mmHg 76%
    17:00 +25°C° 0 mm 0 mps 704 mmHg 81%
    18:00 +23°C° 0 mm 0 mps 705 mmHg 86%
    19:00 +21°C° 0 mm 0 mps 705 mmHg 91%
    20:00 +21°C° 0 mm 0 mps 705 mmHg 92%
    21:00 +21°C° 0 mm 0 mps 706 mmHg 93%
    22:00 +20°C° 0 mm 0 mps 706 mmHg 94%
    23:00 +20°C° 0 mm 0 mps 706 mmHg 95%

    24 Octubre, Jueves

    Tiempo Temperatura Precipitaciones Viento Presión Humedad
    00:00 +20°C° 0 mm 0 mps 706 mmHg 96%
    01:00 +20°C° 0 mm 0 mps 705 mmHg 96%
    02:00 +20°C° 0 mm 0 mps 705 mmHg 97%
    03:00 +20°C° 0 mm 0 mps 705 mmHg 97%
    04:00 +19°C° 0 mm 0 mps 705 mmHg 97%
    05:00 +20°C° 0 mm 0 mps 706 mmHg 96%
    06:00 +21°C° 0 mm 0 mps 706 mmHg 95%
    07:00 +21°C° 0 mm 0 mps 707 mmHg 94%
    08:00 +23°C° 0.2 mm 0 mps 707 mmHg 89%
    09:00 +25°C° 0.2 mm 0 mps 707 mmHg 84%
    10:00 +27°C° 0.2 mm 0 mps 708 mmHg 79%
    11:00 +29°C° 1.2 mm 1 mps 707 mmHg 79%
    12:00 +29°C° 1.2 mm 1 mps 706 mmHg 78%
    13:00 +30°C° 1.2 mm 1 mps 705 mmHg 78%
    14:00 +28°C° 0.7 mm 0 mps 704 mmHg 78%
    15:00 +27°C° 0.7 mm 0 mps 704 mmHg 78%
    16:00 +27°C° 0.7 mm 0 mps 704 mmHg 78%
    17:00 +25°C° 1.9 mm 0 mps 704 mmHg 84%
    18:00 +25°C° 1.8 mm 1 mps 705 mmHg 90%
    19:00 +23°C° 1.8 mm 1 mps 705 mmHg 96%
    20:00 +23°C° 0.8 mm 1 mps 705 mmHg 96%
    21:00 +23°C° 0.8 mm 1 mps 706 mmHg 95%
    22:00 +20°C° 0.8 mm 0 mps 706 mmHg 94%
    23:00 +20°C° 1.3 mm 0 mps 706 mmHg 95%

    25 Octubre, Viernes

    Tiempo Temperatura Precipitaciones Viento Presión Humedad
    00:00 +20°C° 1.3 mm 0 mps 706 mmHg 96%
    01:00 +20°C° 1.3 mm 0 mps 706 mmHg 96%
    02:00 +20°C° 1.1 mm 0 mps 706 mmHg 97%
    03:00 +20°C° 1.1 mm 0 mps 706 mmHg 97%
    04:00 +20°C° 1.1 mm 0 mps 706 mmHg 98%
    05:00 +20°C° 0.4 mm 0 mps 706 mmHg 98%
    06:00 +23°C° 0.4 mm 1 mps 707 mmHg 97%
    07:00 +23°C° 0.4 mm 1 mps 707 mmHg 97%
    08:00 +24°C° 1.2 mm 1 mps 707 mmHg 95%
    09:00 +25°C° 1.2 mm 1 mps 707 mmHg 93%
    10:00 +27°C° 1.2 mm 2 mps 708 mmHg 91%
    11:00 +27°C° 0.8 mm 2 mps 707 mmHg 88%
    12:00 +28°C° 0.8 mm 2 mps 706 mmHg 85%
    13:00 +28°C° 0.8 mm 2 mps 705 mmHg 82%
    14:00 +28°C° 0.8 mm 2 mps 704 mmHg 83%
    15:00 +28°C° 0.8 mm 1 mps 704 mmHg 84%
    16:00 +28°C° 0.8 mm 1 mps 704 mmHg 85%
    17:00 +26°C° 2.3 mm 1 mps 704 mmHg 89%
    18:00 +25°C° 2.3 mm 2 mps 705 mmHg 93%
    19:00 +23°C° 2.3 mm 2 mps 705 mmHg 97%
    20:00 +23°C° 0.4 mm 2 mps 706 mmHg 97%
    21:00 +23°C° 0.4 mm 1 mps 706 mmHg 97%
    22:00 +22°C° 0.4 mm 1 mps 707 mmHg 98%
    23:00 +22°C° 0.5 mm 1 mps 706 mmHg 98%
    Mostrar más